Regional Weather Roundup
Issued by NWS Pendleton, OR

Home | Current Version | Previous Version | Text Only | Print | Product List | Glossary On
Versions: 1 2 3 4 5 6 7 8 9 10 11 12 13 14 15 16 17 18 19 20 21 22 23 24 25 26 27 28 29 30 31 32 33 34 35 36 37 38 39 40 41 42 43 44 45 46 47 48 49 50
000
ASUS46 KPDT 251710
RWRPDT
PENDLETON REGIONAL WEATHER ROUNDUP
NATIONAL WEATHER SERVICE PENDLETON OREGON
1000 AM PDT FRI JUL 25 2014

NOTE: FAIR INDICATES FEW OR NO CLOUDS BELOW 12,000 FEET WITH NO
SIGNIFICANT WEATHER AND/OR OBSTRUCTIONS TO VISIBILITY.

# INDICATES UNOFFICIAL STATION AND DATA

WAZ520-251810-
EAST SLOPES OF WASHINGTON CASCADES

CITY            SKY/WX      TMP DP  RH  WIND    PRES   REMARKS
#BUMPING DAM    N/A         51  N/A N/A CALM    N/A
#CLE ELUM HS    N/A         61  45  56  NW3     30.06S
#CLE ELUM LAKE  N/A         60  47  62  CALM    30.06S
#CLIFFDEL 2NW   N/A         56  45  66  W1      N/A
#EASTON DOT     N/A         55  45  69  N2      N/A
#ELK HTS DOT    N/A         62  62  100 NW2     N/A
#GLENWOOD       N/A         57  49  75  CALM    30.09F
#MANASTASH CYN  N/A         59  46  62  CALM    30.08S
#NELSON         N/A         60  49  67  CALM    30.08S
#NELSON 3SW     N/A         56  48  74  CALM    30.27S
#PEOH POINT     N/A         52  45  77  W1      N/A
#RONALD 2NW     N/A         57  48  72  CALM    29.98F
#TROUT LAKE 1NE N/A         58  48  69  CALM    30.09F
$$

WAZ521-251810-
SIMCOE HIGHLANDS

CITY            SKY/WX      TMP DP  RH  WIND    PRES   REMARKS
#BICKLETON HS   N/A         60  36  41  E3      30.15S
#SATUS PASS DOT N/A         63  40  43  CALM    N/A
#CENTERVILLE 1SWN/A         61  47  60  W6      30.05F
#GOLDENDALE 1NE N/A         60  42  51  CALM    N/A
#GOLDENDALE 1S  N/A         61  50  67  CALM    30.08F
#GOLDENDALE 5WNWN/A         61  48  62  E1      30.07F
#GOODNOE HILLS  N/A         65  49  56  SW14    30.04F
#LYLE 6NE       N/A         57  52  83  S3      30.06S
$$

WAZ026-251810-
KITTITAS VALLEY

CITY            SKY/WX      TMP DP  RH  WIND    PRES   REMARKS
ELLENSBURG AP   SUNNY       68  45  44  SW6     30.10F
#ELLENSBURG CWU N/A         64  46  52  N6      30.03S
#ELLENSBURG 3NE N/A         62  47  58  SW3     30.10F
#ELLENSBURG 1E  N/A         64  45  50  CALM    N/A
#KITTITAS 3S    N/A         63  48  58  CALM    30.05S
#RYEGRASS DOT   N/A         58  45  62  SW2     N/A
#THORP 6N       N/A         61  47  60  NW3     30.08F
$$

WAZ027-251810-
YAKIMA VALLEY

CITY            SKY/WX      TMP DP  RH  WIND    PRES   REMARKS
YAKIMA AIRPORT  SUNNY       68  44  42  SE5     30.10F
YAKIMA-VAGABOND SUNNY       67  42  40  VRB7    30.11F
#COWICHE 1N     N/A         61  46  58  N2      30.22F
#DONALD 2NE     N/A         67  43  42  SW1     30.30S
#GRANDVIEW      N/A         67  47  49  SE2     30.09F
#MABTON         N/A         64  47  54  W2      30.09F
#MOXEE 2E       N/A         70  24  18  CALM    29.99F
#NACHES 2SW     N/A         66  46  48  CALM    30.11F
#TERRACE HTS    N/A         66  48  52  CALM    30.03S
#TOPPENISH      N/A         64  47  54  CALM    30.00F
#WAPATO 4NE     N/A         67  43  42  SW1     30.30S
#W YAKIMA       N/A         66  47  50  S2      30.06F
#WHITE SWAN 5E  N/A         65  47  52  NW1     30.08F
#WILEY CITY 3W  N/A         64  44  48  CALM    30.11S
$$

WAZ028-251810-
LOWER COLUMBIA BASIN...WASHINGTON

CITY            SKY/WX      TMP DP  RH  WIND    PRES   REMARKS
HANFORD         SUNNY       70  42  36  E3      30.08S
PASCO           SUNNY       69  50  51  E5      30.10F
PROSSER AWOS    N/A         68  50  53  E3      30.13S
RICHLAND AWOS   SUNNY       70  46  42  E6      30.10F
#BASIN CITY 5SW N/A         69  52  55  CALM    30.10F
#BENTON CITY    N/A         67  49  52  NE3     29.99S
#CONNELL 5N     N/A         66  47  50  SW3     30.07F
#CONNELL 5NW    N/A         63  36  36  CALM    30.04F
#ELTOPIA        N/A         70  52  53  CALM    30.05F
#ELTOPIA 6NW    N/A         65  53  65  SW1     29.07F
#KENNEWICK 3S   N/A         69  55  61  CALM    30.08F
#PASCO-BROADMOORN/A         73  51  46  SE1     29.99S
#PATERSON       N/A         62  50  65  SW6     30.08F
#PROSSER DOT    N/A         66  48  52  NE1     N/A
#PROSSER        N/A         67  48  50  CALM    30.07F
#SAGEMOOR 2W    N/A         67  53  61  CALM    29.93F
#TOUCHET 2S     N/A         71  52  51  CALM    30.06F
#WEST PASCO     N/A         72  53  51  E1      30.09F
$$

WAZ029-251810-
FOOTHILLS OF THE BLUES...WASHINGTON

CITY            SKY/WX      TMP DP  RH  WIND    PRES   REMARKS
WALLA WALLA AP  SUNNY       68  48  49  W7      30.12F
#COLLEGE PLACE  N/A         73  47  40  W1      30.10F
#DAYTON SCHOOL  N/A         65  45  48  W2      30.09F
#DELANEY DOT    N/A         69  47  45  S2      N/A
#LOWDEN 2SE     N/A         69  52  55  NW2     30.06F
#PLEASANT VIEW 1N/A         66  48  52  S2      30.11S
#PRESCOTT       N/A         68  51  55  SW1     30.07F
#SUDBURY        N/A         69  N/A N/A W6      N/A
#WHITMAN COLLEGEN/A         65  50  58  W3      30.13F
#WAITSBURG 8N   N/A         68  38  33  S6      29.94F
#WALLA WALLA 5E N/A         68  49  51  S15     N/A
#WALLA WALLA U  N/A         68  50  53  CALM    30.07F
#WHITMAN MISSIONN/A         68  53  59  SW1     30.09F
$$

WAZ030-251810-
BLUE MOUNTAINS...WASHINGTON

CITY            SKY/WX      TMP DP  RH  WIND    PRES   REMARKS
$$

ORZ009-041-WAZ024-251810-
COLUMBIA RIVER GORGE

CITY            SKY/WX      TMP DP  RH  WIND    PRES   REMARKS
HOOD RIVER AP   SUNNY       63  54  72  SE6     30.11F
THE DALLES AP   SUNNY       67  52  59  N7      30.10F
#ARLINGTON AIRPON/A         65  49  56  NW9     N/A
#ARLINGTON HS   N/A         69  48  47  N5      30.00F
#CELILO DOT     N/A         67  48  50  SE2     N/A
#MARYHILL       N/A         62  51  67  CALM    N/A
#MOSIER 1S      N/A         63  48  58  CALM    30.15F
#MURDOCK        N/A         65  56  73  W3      30.11F
#RUFUS DOT      N/A         67  51  56  W2      N/A

$$

ORZ510-251810-
NORTH CENTRAL OREGON

CITY            SKY/WX      TMP DP  RH  WIND    PRES   REMARKS
#CHENOWITH 1W   N/A         59  48  67  W5      N/A
#COW CYN RST AREN/A         59  45  60  SW3     N/A
#DUFUR 9E       N/A         60  48  64  NE3     30.12F
#GRASS VALLEY 1SN/A         62  45  54  W3      30.09F
#KENT DOT       N/A         63  33  32  NW3     N/A
#MAUPIN SCHOOL  N/A         65  49  56  CALM    30.14F
#MORO SCHOOL    N/A         64  50  60  SW2     30.13S
#SHANIKO 5WSW   N/A         58  39  49  S5      N/A
#SHANIKO 4NW    N/A         59  43  55  W3      30.14S
#TYGH VALLEY 2NEN/A         63  50  62  CALM    30.08F
#WAPANITIA AIRPON/A         65  48  54  E1      30.09S
#WASCO DOT      N/A         66  46  48  NW2     N/A
#WASCO 5NE      N/A         64  48  56  N3      30.08F
$$

ORZ511-251810-
CENTRAL OREGON

CITY            SKY/WX      TMP DP  RH  WIND    PRES   REMARKS
BEND AIRPORT    SUNNY       61  43  51  S3      30.16S
MADRAS AIRPORT  SUNNY       61  45  56  SW5     30.15F
REDMOND AIRPORT SUNNY       63  43  48  VRB3    30.14S
#BEND 6E        N/A         64  42  45  CALM    30.00F
#BEND 1SW       N/A         62  45  54  W1      N/A
#BEND-AWBREY    N/A         61  47  60  CALM    30.05F
#BEND-KIM LN    N/A         62  49  62  E1      30.12F
#CROOKED RVR RANN/A         66  48  52  CALM    30.07F
#CULVER         N/A         62  47  58  CALM    30.10F
#LAKE BILLY CHINN/A         62  20  20  N2      30.16F
#POWELL BUTTE 3EN/A         58  45  62  NE3     N/A
#POWELL BUTTE   N/A         69  50  51  N3      29.77F
#PRINEVILLE 3N  N/A         60  49  67  NE2     30.04F


ORZ509-251810-
EAST SLOPES OF OREGON CASCADES

CITY            SKY/WX      TMP DP  RH  WIND    PRES   REMARKS
#BLUE BOX PASS  N/A         49  -2  12  NW2     N/A
#BLACK BUTTE RNCN/A         53  49  86  CALM    30.09F
#CAMP SHERMAN   N/A         60  45  58  CALM    30.09F
#LA PINE DOT    N/A         62  37  39  CALM    N/A
#LA PINE 4NW    N/A         54  45  71  CALM    30.12F
#LAVA BUTTE DOT N/A         60  41  49  SW1     N/A
#SISTERS AIRPOR N/A         61  52  72  CALM    30.12F
#SISTERS ODOT   N/A         62  N/A N/A CALM    N/A
#SISTERS 3N     N/A         61  32  33  NE3     30.16S
#SUNRIVER       N/A         59  48  67  S2      29.95F
#SUNRIVER AP    N/A         57  48  72  S1      30.03F
#SUTTLE LK DOT  N/A         57  46  67  E2      N/A
#TUMALO 3W      N/A         60  46  60  CALM    29.96F
#WANOGA BUTTE D N/A         58  37  45  SW2     N/A

$$

ORZ044-251810-
LOWER COLUMBIA BASIN...OREGON

CITY            SKY/WX      TMP DP  RH  WIND    PRES   REMARKS
HERMISTON       SUNNY       68  48  49  SW7     30.10F
#BOARDMAN SCHOOLN/A         65  51  60  CALM    30.08F
#BOARDMAN 3W    N/A         71  56  59  NE1     29.82S
#BOARDMAN 8SW   N/A         68  51  55  SW6     30.09S
#IONE SCHOOL    N/A         67  48  50  N1      30.09F
#IRRIGON 4NW    N/A         68  52  57  E2      N/A
#UMATILLA SCHOOLN/A         70  56  61  CALM    30.12F
#UMATILLA       N/A         69  50  51  CALM    30.07F
$$

ORZ507-251810-
NORTHERN FOOTHILLS OF THE BLUES

CITY            SKY/WX      TMP DP  RH  WIND    PRES   REMARKS
PENDLETON AIRPT SUNNY       66  43  43  W5      30.11F
#ADAMS 3WNW     N/A         65  47  52  W6      30.08F
#ATHENA         N/A         65  49  56  CALM    30.09F
#HELIX SCHOOL   N/A         63  46  54  W5      30.07F
#HELIX 3N       N/A         64  45  50  S10     30.08F
#HOLDMAN 5SE    N/A         65  47  52  SW5     30.11F
#HOLDMAN 6E     N/A         66  47  50  N1      29.90F
#M-F FERNDALE   N/A         65  52  63  CALM    30.09F
#M-F GROVE ELEM N/A         68  45  44  SW2     30.09F
#M-FREEWATER 5SEN/A         67  52  59  W5      30.09F
#PDT AQUATIC CTRN/A         66  50  56  W7      30.03F
#PENDLETON 5NE  N/A         66  48  52  SW1     30.08F
#PDT SUNRIDGE   N/A         66  48  52  CALM    30.12F
#PENDLETON 7NW  N/A         69  51  53  W1      30.03F
#PILOT ROCK     N/A         66  46  48  N1      30.13F
#TUTUILLA       N/A         67  48  50  W2      30.02F
#UMAPINE 2E     N/A         70  51  51  N2      30.07F
#WESTON SCHOOL  N/A         63  47  56  NW2     30.09S

$$

ORZ508-251810-
SOUTHERN FOOTHILLS OF THE BLUES

CITY            SKY/WX      TMP DP  RH  WIND    PRES   REMARKS
#AJAX           N/A         N/A N/A N/A W5      30.14F
#CONDON SCHOOL  N/A         60  48  64  SW5     30.09S
#HEPPNER EOC    N/A         66  45  47  CALM    30.02F
#HEPPNER 4NE    N/A         63  45  52  CALM    30.07S
#LEXINGTON 2SE  N/A         70  48  46  CALM    30.06F
#MIKKALO        N/A         65  45  48  W3      30.10F
#OLEX 4N        N/A         64  48  56  SW5     30.09F
#RUGGS 5NE      N/A         66  44  45  W7      30.30S
#RUGGS 2SW      N/A         63  45  52  NE5     30.11F

$$

ORZ502-503-251810-
BLUE MOUNTAINS

CITY            SKY/WX      TMP DP  RH  WIND    PRES   REMARKS
MEACHAM         SUNNY       62  45  54  CALM    30.15S
#BATTLE MTN DOT N/A         57  48  72  SE2     N/A
#HARDMAN 10S    N/A         58  46  64  SE2     30.19F
#HEPPNER 15SE   N/A         60  47  62  CALM    30.07S
#LADD CYN SMT   N/A         61  37  41  NW7     N/A
#LADD CREEK ODOTN/A         61  47  60  NE6     N/A
#LONG CREEK HS  N/A         60  48  64  N5      30.09F
#PIKES PEAK     N/A         55  47  74  SW6     27.99S
#TROY SCHOOL    N/A         66  49  54  CALM    29.90F
#UKIAH          N/A         57  48  72  CALM    30.14F
#WESTON 4E      N/A         61  48  62  S1      30.02S
$$

ORZ505-251810-
JOHN DAY BASIN

CITY            SKY/WX      TMP DP  RH  WIND    PRES   REMARKS
JOHN DAY        SUNNY       64  44  48  CALM    30.15F
#JOHN DAY KJDY  N/A         70  43  38  CALM    30.09F
#MONUMENT HS    N/A         65  46  50  VRB2    29.94F
#MT. VERNON 5SE N/A         62  45  54  CALM    30.11S
#WINLOCK        N/A         68  48  49  NW3     30.21F
$$

ORZ506-251810-
OCHOCO AND JOHN DAY HIGHLANDS

CITY            SKY/WX      TMP DP  RH  WIND    PRES   REMARKS
#BUCK CREEK DOT N/A         64  48  56  N1      N/A
#HORSE RIDGE DO N/A         64  26  23  CALM    N/A
#KEYES SMT DOT  N/A         63  41  44  N3      N/A
#PINE MTN OBS   N/A         56  31  38  CALM    N/A
#PRAIRIE CITY   N/A         64  45  50  CALM    30.07F
#SENECA 9NW     N/A         57  43  59  CALM    30.06F
$$

ORZ049-251810-
GRANDE RONDE VALLEY

CITY            SKY/WX      TMP DP  RH  WIND    PRES   REMARKS
LA GRANDE       SUNNY       64  41  43  W3      30.13F
#COVE           N/A         62  50  65  SE2     30.05F
#COVE 6NW       N/A         61  48  62  CALM    30.12F
#ELGIN 3N       N/A         64  47  54  CALM    29.85F
#ELGIN 1E       N/A         62  47  58  CALM    N/A
#IMBLER SCHOOL  N/A         56  43  62  CALM    30.09F
#ISLAND CITY 4N N/A         67  51  56  NE3     30.02F
#LADD CYN DOT   N/A         61  46  58  NW2     N/A
#UNION 1S       N/A         63  48  58  CALM    29.98F
$$

ORZ050-251810-
WALLOWA COUNTY

CITY            SKY/WX      TMP DP  RH  WIND    PRES   REMARKS
#ENTERPRISE AP  N/A         66  35  32  CALM    29.99S
#ENTERPRISE HS  N/A         61  44  53  CALM    30.15F
#IMNAHA SCHOOL  N/A         69  39  33  CALM    30.01F
#IMNAHA 10S     N/A         69  42  37  NE2     30.10F
#JOSEPH 3N      N/A         58  45  62  CALM    30.16S
#JOSEPH 3W      N/A         61  44  53  E5      30.00S
#LOSTINE        N/A         62  44  52  CALM    29.88F
#MT HOWARD 8000 N/A         47  39  74  E3      30.28S
#PROMISE 1S     N/A         61  47  60  CALM    30.16F
#SHEEP RDG 7000 N/A         49  40  71  CALM    30.09S
#WALLOWA SCHOOL N/A         61  44  53  CALM    30.99F



$$



USA.gov is the U.S. government's official web portal to all federal, state and local government web resources and services.